1498140000.65,12162,22.75,74306.5,21.93,-18.65,-17.79,0,*40
1498140001.85,12163,22.75,74304.5,21.93,-18.21,-17.49,0,*42
1498140003.11,12164,22.69,74302.3,21.95,-19.41,-18.73,0,*42
1498140004.38,12165,22.75,74304.0,21.95,-19.13,-18.35,0,*46
1498140005.64,12166,22.75,74304.3,21.95,-19.17,-18.55,0,*47
1498140006.84,12167,22.69,74302.8,21.93,-18.83,-18.07,0,*4B
1498140008.07,12168,22.75,74304.3,21.93,-19.41,-18.65,0,*4F
1498140009.34,12169,22.69,74302.0,21.93,-19.27,-18.55,0,*4D
1498140010.58,12170,22.75,74306.5,21.91,-19.81,-19.17,0,*4C
1498140011.84,12171,22.69,74300.0,21.93,-20.19,-19.41,0,*47
1498140013.04,12172,22.69,74300.5,21.93,-19.17,-18.41,0,*41
1498140014.27,12173,22.75,74302.8,21.91,-19.17,-18.25,0,*40
1498140015.48,12174,22.75,74306.3,21.93,-19.91,-19.13,0,*4F
1498140016.68,12175,22.75,74304.0,21.93,-20.05,-19.17,0,*4D
1498140017.93,12176,22.75,74304.3,21.93,-19.41,-18.55,0,*43
1498140019.18,12177,22.75,74304.5,21.91,-19.47,-18.55,0,*46
1498140020.42,12178,22.75,74306.8,21.91,-19.03,-18.11,0,*49
1498140021.68,12179,22.75,74304.8,21.91,-18.79,-17.97,0,*45
1498140022.91,12180,22.75,74306.3,21.91,-19.07,-18.17,0,*4C
1498140024.16,12181,22.75,74304.0,21.91,-18.59,-17.69,0,*41
1498140025.39,12182,22.75,74304.3,21.93,-18.49,-17.59,0,*42
1498140026.65,12183,22.75,74306.8,21.93,-18.35,-17.45,0,*45
1498140027.88,12184,22.75,74300.5,21.93,-19.65,-19.03,0,*4A
1498140029.14,12185,22.75,74302.8,21.91,-21.33,-20.43,0,*4F
1498140030.39,12186,22.75,74306.0,21.91,-20.25,-19.31,0,*45
1498140031.58,12187,22.75,74306.5,21.89,-20.05,-18.83,0,*47
1498140032.81,12188,22.75,74306.0,21.89,-20.79,-19.91,0,*41
1498140034.02,12189,22.75,74302.3,21.87,-21.43,-20.63,0,*41
1498140035.25,12190,22.75,74306.8,21.87,-21.47,-20.53,0,*4E
1498140036.53,12191,22.75,74300.8,21.85,-20.19,-19.31,0,*49
1498140037.73,12192,22.75,74300.5,21.83,-19.37,-18.45,0,*48
1498140038.95,12193,22.75,74304.0,21.83,-20.89,-19.95,0,*4A
1498140040.17,12194,22.75,74304.0,21.83,-19.95,-18.89,0,*46
1498140041.43,12195,22.75,74304.0,21.81,-19.61,-18.17,0,*49
1498140042.66,12196,22.75,74298.8,21.81,-19.17,-18.11,0,*4D
1498140043.9,12197,22.75,74302.8,21.83,-18.41,-17.11,0,*43
1498140045.13,12198,22.75,74302.0,21.83,-19.65,-18.69,0,*4B
1498140046.36,12199,22.75,74302.3,21.83,-20.89,-19.81,0,*45
1498140047.6,12200,22.75,74302.3,21.81,-20.29,-19.23,0,*46
1498140048.88,12201,22.75,74304.0,21.81,-20.53,-19.65,0,*48
1498140050.11,12202,22.75,74302.5,21.79,-20.59,-19.65,0,*46
1498140051.37,12203,22.75,74302.0,21.79,-19.85,-18.93,0,*44
1498140052.61,12204,22.75,74302.0,21.79,-19.27,-18.21,0,*42
1498140053.84,12205,22.75,74304.0,21.75,-19.57,-18.65,0,*48
1498140055.07,12206,22.75,74300.0,21.75,-20.49,-19.47,0,*4F
1498140056.32,12207,22.75,74300.5,21.75,-19.41,-18.35,0,*48
1498140057.55,12208,22.75,74298.3,21.75,-18.79,-17.59,0,*48
1498140058.78,12209,22.75,74302.3,21.75,-18.41,-17.21,0,*4D
1498140060.01,12210,22.75,74302.8,21.79,-18.01,-16.97,0,*41
1498140061.27,12211,22.75,74302.3,21.81,-18.69,-17.63,0,*43
1498140062.5,12212,22.75,74302.0,21.81,-18.41,-17.35,0,*49
1498140063.76,12213,22.75,74300.3,21.81,-18.59,-17.35,0,*41
1498140064.99,12214,22.75,74302.0,21.79,-18.65,-17.55,0,*48
1498140066.23,12215,22.75,74300.3,21.81,-19.07,-18.11,0,*44
1498140067.45,12216,22.75,74304.0,21.81,-19.47,-18.41,0,*46
1498140068.68,12217,22.75,74302.5,21.81,-19.75,-18.73,0,*47
1498140069.91,12218,22.75,74300.5,21.81,-19.47,-18.45,0,*4C
1498140071.16,12219,22.75,74300.3,21.81,-20.59,-19.65,0,*4B
1498140072.36,12220,22.75,74302.8,21.75,-20.25,-19.13,0,*40
1498140073.6,12221,22.75,74302.3,21.75,-19.31,-18.07,0,*4A
1498140074.84,12222,22.75,74302.8,21.75,-19.27,-18.07,0,*4E
1498140076.09,12223,22.75,74302.3,21.73,-20.83,-19.75,0,*49
1498140077.37,12224,22.75,74302.5,21.73,-21.97,-20.99,0,*42
1498140078.62,12225,22.75,74306.0,21.71,-21.23,-20.15,0,*4A
1498140079.85,12226,22.75,74304.3,21.71,-20.25,-19.23,0,*41
1498140081.09,12227,22.75,74300.5,21.69,-21.43,-20.43,0,*44
1498140082.34,12228,22.75,74302.5,21.67,-21.33,-20.19,0,*4D
1498140083.54,12229,22.75,74302.0,21.67,-19.99,-18.99,0,*44
1498140084.75,12230,22.75,74302.5,21.67,-19.75,-18.65,0,*4D
1498140085.99,12231,22.75,74302.3,21.67,-19.27,-18.07,0,*4F
1498140087.18,12232,22.75,74300.3,21.67,-20.05,-18.99,0,*41
1498140088.41,12233,22.75,74304.0,21.65,-20.59,-19.47,0,*49
1498140089.67,12234,22.75,74306.0,21.65,-20.83,-19.91,0,*42
1498140090.87,12235,22.75,74302.3,21.63,-20.73,-19.75,0,*40
1498140092.13,12236,22.75,74302.8,21.61,-20.73,-19.57,0,*41
1498140093.4,12237,22.75,74304.0,21.63,-21.67,-21.27,0,*4A
1498140094.65,12238,22.75,74304.0,21.61,-21.73,-20.89,0,*47
1498140095.91,12239,22.75,74306.3,21.57,-22.21,-21.13,0,*45
1498140097.11,12240,22.75,74304.8,21.53,-21.13,-20.05,0,*4B
1498140098.38,12241,22.75,74300.8,21.51,-20.43,-19.41,0,*46
1498140099.64,12242,22.75,74302.3,21.51,-20.89,-19.85,0,*4B
1498140100.87,12243,22.75,74304.5,21.51,-21.39,-20.25,0,*40
1498140102.14,12244,22.75,74304.8,21.51,-22.27,-21.23,0,*4C
1498140103.38,12245,22.75,74302.5,21.47,-21.09,-19.99,0,*4F
1498140104.64,12246,22.75,74302.8,21.47,-19.85,-18.65,0,*41
1498140105.9,12247,22.75,74306.3,21.47,-20.63,-19.61,0,*47
1498140107.1,12248,22.75,74302.5,21.45,-20.09,-18.99,0,*40
1498140108.35,12249,22.75,74300.3,21.43,-20.25,-19.23,0,*49
1498140109.57,12250,22.75,74302.0,21.45,-20.89,-19.91,0,*48
1498140110.81,12251,22.75,74306.3,21.45,-21.27,-20.25,0,*49
1498140112.09,12252,22.75,74302.8,21.43,-21.33,-20.15,0,*4A
1498140113.3,12253,22.75,74306.5,21.41,-20.59,-19.51,0,*4E
1498140114.54,12254,22.75,74304.3,21.41,-19.57,-18.41,0,*4D
1498140115.78,12255,22.75,74304.0,21.41,-19.81,-18.59,0,*4E
1498140117.01,12256,22.75,74302.8,21.41,-20.39,-19.31,0,*4B
1498140118.22,12257,22.75,74304.0,21.41,-19.51,-18.41,0,*48
1498140119.46,12258,22.75,74302.3,21.41,-19.65,-18.45,0,*44
1498140120.72,12259,22.75,74302.3,21.43,-19.57,-18.45,0,*46
1498140121.95,12260,22.75,74304.8,21.43,-19.95,-18.79,0,*4D
1498140123.19,12261,22.75,74304.0,21.45,-20.59,-19.61,0,*48
1498140124.41,12262,22.75,74304.5,21.41,-20.59,-19.51,0,*4C
1498140125.65,12263,22.75,74306.5,21.41,-21.33,-20.25,0,*49
1498140126.94,12264,22.75,74306.0,21.39,-21.87,-20.53,0,*4F
1498140128.2,12265,22.75,74306.3,21.35,-21.27,-20.09,0,*47
1498140129.43,12266,22.75,74308.0,21.37,-20.35,-19.13,0,*45
1498140130.64,12267,22.75,74304.0,21.37,-20.69,-19.47,0,*4C
1498140131.89,12268,22.75,74304.5,21.35,-20.73,-19.65,0,*4A
1498140133.15,12269,22.75,74308.0,21.35,-19.95,-18.55,0,*4B
1498140134.42,12270,22.75,74306.8,21.31,-20.93,-19.65,0,*49
1498140135.67,12271,22.75,74304.5,21.35,-20.53,-19.51,0,*47
1498140136.9,12272,22.75,74304.5,21.31,-20.09,-18.73,0,*4E
1498140138.14,12273,22.75,74304.0,21.35,-21.17,-20.05,0,*4F
1498140139.37,12274,22.75,74306.5,21.29,-22.07,-20.83,0,*49
1498140140.61,12275,22.75,74302.5,21.27,-21.93,-20.73,0,*47
1498140141.82,12276,22.75,74304.8,21.25,-21.17,-19.91,0,*4C
1498140143.08,12277,22.75,74306.8,21.27,-20.63,-19.31,0,*47
1498140144.31,12278,22.75,74300.8,21.25,-21.27,-20.05,0,*46
1498140145.56,12279,22.75,74304.8,21.23,-20.15,-18.73,0,*4B
1498140146.81,12280,22.75,74306.5,21.23,-20.59,-19.31,0,*42
1498140148.07,12281,22.75,74304.8,21.23,-21.33,-19.95,0,*40
1498140149.28,12282,22.75,74306.3,21.23,-21.09,-19.75,0,*44
1498140150.51,12283,22.75,74304.8,21.21,-20.93,-19.57,0,*45
1498140151.73,12284,22.75,74308.5,21.21,-20.63,-19.27,0,*4A
1498140152.97,12285,22.75,74304.5,21.19,-20.49,-19.07,0,*4A
1498140154.21,12286,22.75,74306.0,21.19,-20.73,-19.41,0,*42
1498140155.43,12287,22.75,74302.8,21.17,-20.69,-19.31,0,*41
1498140156.67,12288,22.75,74306.5,21.17,-20.35,-18.93,0,*4E
1498140157.92,12289,22.75,74304.5,21.17,-21.03,-19.85,0,*4D
1498140159.11,12290,22.75,74304.0,21.17,-21.43,-20.05,0,*43
1498140160.34,12291,22.75,74308.0,21.15,-20.89,-19.75,0,*4A
1498140161.56,12292,22.75,74304.8,21.13,-21.03,-19.95,0,*42
1498140162.82,12293,22.75,74306.5,21.11,-20.89,-19.65,0,*4D
1498140164.09,12294,22.75,74308.0,21.07,-20.83,-19.61,0,*43
1498140165.32,12295,22.75,74306.3,21.11,-19.95,-18.65,0,*4D
1498140166.54,12296,22.75,74304.0,21.07,-20.25,-19.13,0,*48
1498140167.76,12297,22.75,74308.3,21.07,-20.25,-19.13,0,*49
1498140169.01,12298,22.75,74306.3,21.11,-20.59,-19.41,0,*4D
1498140170.26,12299,22.75,74306.5,21.07,-19.91,-18.93,0,*4B
1498140171.5,12300,22.75,74306.5,21.07,-19.31,-18.41,0,*4F
1498140172.76,12301,22.75,74306.3,21.03,-19.81,-18.89,0,*45
1498140174.0,12302,22.75,74310.8,21.03,-19.47,-18.59,0,*41
1498140175.22,12303,22.75,74306.3,21.03,-19.13,-18.25,0,*4A
1498140176.47,12304,22.75,74308.3,21.03,-19.61,-18.83,0,*44
1498140177.69,12305,22.81,74310.5,21.03,-19.95,-19.17,0,*42
1498140178.94,12306,22.81,74310.3,21.03,-20.25,-19.61,0,*41
1498140180.16,12307,22.75,74310.0,21.01,-19.57,-19.03,0,*49
1498140181.35,12308,22.75,74308.0,21.01,-20.09,-19.51,0,*40
1498140182.63,12309,22.75,74308.5,20.99,-20.15,-19.57,0,*4A
1498140183.9,12310,22.75,74310.5,20.99,-19.41,-18.93,0,*40
1498140185.1,12311,22.75,74310.8,20.97,-18.83,-18.41,0,*4F
1498140186.35,12312,22.75,74306.5,20.97,-18.59,-18.31,0,*4C
1498140187.57,12313,22.75,74308.8,20.97,-18.89,-18.69,0,*4D
1498140188.77,12314,22.81,74310.5,20.97,-19.03,-18.73,0,*42
1498140189.96,12315,22.75,74308.0,20.97,-20.05,-19.91,0,*42
1498140191.18,12316,22.75,74310.0,20.97,-19.75,-19.81,0,*4D
1498140192.4,12317,22.75,74308.0,20.95,-19.75,-19.75,0,*45
1498140193.63,12318,22.75,74312.0,20.95,-19.17,-19.03,0,*4F
1498140194.88,12319,22.75,74308.8,20.95,-19.37,-19.61,0,*48
1498140196.14,12320,22.81,74312.3,20.95,-19.65,-20.05,0,*4D
1498140197.39,12321,22.75,74310.8,20.93,-20.15,-20.49,0,*4F
1498140198.61,12322,22.81,74312.8,20.91,-19.41,-19.71,0,*44
1498140199.88,12323,22.75,74310.8,20.91,-19.27,-19.57,0,*41
1498140201.07,12324,22.75,74308.0,20.91,-18.79,-19.07,0,*49
1498140202.29,12325,22.81,74314.0,20.91,-18.35,-18.49,0,*4B
1498140203.52,12326,22.75,74312.8,20.91,-18.35,-18.65,0,*46
1498140204.71,12327,22.75,74310.8,20.93,-17.87,-18.25,0,*47
1498140205.96,12328,22.81,74314.0,20.95,-17.63,-17.83,0,*47
1498140207.19,12329,22.75,74310.5,20.93,-17.45,-17.73,0,*4B
1498140208.44,12330,22.81,74314.0,20.93,-18.01,-18.35,0,*41
1498140209.7,12331,22.81,74312.8,20.95,-17.07,-17.35,0,*40
1498140210.92,12332,22.81,74312.3,20.97,-16.79,-17.17,0,*49
1498140212.15,12333,22.81,74312.3,20.95,-17.83,-18.21,0,*44
1498140213.4,12334,22.81,74314.0,20.99,-17.25,-17.49,0,*42
1498140214.61,12335,22.75,74312.5,20.99,-18.65,-19.07,0,*4C
1498140215.87,12336,22.81,74316.3,20.99,-17.45,-17.87,0,*44
1498140217.12,12337,22.81,74316.3,21.01,-16.69,-17.11,0,*45
1498140218.38,12338,22.81,74314.0,21.01,-16.65,-17.07,0,*41
1498140219.63,12339,22.75,74314.0,21.03,-16.79,-17.21,0,*4B
1498140220.87,12340,22.81,74314.8,21.03,-17.63,-18.07,0,*44
1498140222.09,12341,22.81,74314.8,21.05,-17.35,-17.79,0,*46
1498140223.28,12342,22.81,74312.3,21.05,-19.03,-19.51,0,*4A
1498140224.48,12343,22.75,74314.0,21.05,-19.51,-20.09,0,*4B
1498140225.71,12344,22.81,74314.5,21.03,-19.13,-19.75,0,*4D
1498140226.97,12345,22.81,74314.3,21.03,-19.65,-20.39,0,*4F
1498140228.22,12346,22.75,74312.0,21.01,-22.47,-23.33,0,*4F
1498140229.43,12347,22.81,74314.3,20.97,-23.69,-24.51,0,*4E
1498140230.63,12348,22.81,74318.8,20.93,-23.13,-23.79,0,*45
1498140231.9,12349,22.81,74312.5,20.89,-23.19,-23.99,0,*4B
1498140233.14,12350,22.81,74314.0,20.85,-23.33,-24.05,0,*45
1498140234.42,12351,22.81,74312.0,20.81,-22.77,-23.29,0,*48
1498140235.64,12352,22.75,74314.0,20.77,-21.93,-22.37,0,*45
1498140236.92,12353,22.81,74314.8,20.77,-22.77,-23.33,0,*48
1498140238.17,12354,22.81,74312.5,20.73,-23.43,-24.11,0,*4A
1498140239.39,12355,22.81,74314.0,20.69,-23.39,-24.05,0,*48
1498140240.62,12356,22.81,74314.0,20.67,-23.69,-24.31,0,*47
1498140241.82,12357,22.75,74310.0,20.63,-23.79,-24.35,0,*47
1498140243.07,12358,22.81,74312.3,20.59,-23.75,-24.15,0,*4F
1498140244.32,12359,22.75,74310.0,20.57,-23.85,-23.85,0,*41
1498140245.55,12360,22.81,74312.5,20.53,-23.99,-24.47,0,*4B
1498140246.79,12361,22.81,74314.5,20.51,-23.49,-23.89,0,*40
1498140248.05,12362,22.81,74314.5,20.47,-23.75,-23.99,0,*4A
1498140249.28,12363,22.81,74314.5,20.47,-23.13,-23.43,0,*4C
1498140250.51,12364,22.75,74310.3,20.45,-23.53,-23.89,0,*4B
1498140251.76,12365,22.81,74308.0,20.43,-24.57,-25.03,0,*4B
1498140253.02,12366,22.81,74310.3,20.37,-23.49,-23.49,0,*4B
1498140254.3,12367,22.81,74308.0,20.35,-23.03,-23.23,0,*4A
1498140255.53,12368,22.81,74308.5,20.35,-22.27,-22.27,0,*47
1498140256.76,12369,22.75,74308.0,20.35,-20.69,-20.69,0,*46
1498140258.0,12370,22.81,74310.8,20.35,-20.39,-20.39,0,*4E
1498140259.24,12371,22.81,74308.8,20.37,-19.31,-19.17,0,*49
1498140260.51,12372,22.81,74310.0,20.43,-21.53,-21.57,0,*49
1498140261.74,12373,22.81,74312.0,20.39,-22.03,-22.07,0,*45
1498140262.97,12374,22.81,74310.5,20.37,-21.09,-20.83,0,*4B
1498140264.17,12375,22.81,74310.3,20.37,-19.07,-18.83,0,*44
1498140265.39,12376,22.81,74312.0,20.37,-18.17,-18.01,0,*4D
1498140266.64,12377,22.81,74312.3,20.43,-18.65,-18.59,0,*47
1498140267.87,12378,22.81,74314.8,20.45,-22.17,-22.11,0,*47
1498140269.08,12379,22.81,74312.8,20.45,-19.81,-19.51,0,*4D
1498140270.31,12380,22.81,74312.5,20.43,-18.79,-18.45,0,*4F
1498140271.51,12381,22.81,74314.8,20.45,-20.05,-19.75,0,*4A
1498140272.78,12382,22.81,74314.5,20.43,-23.65,-23.49,0,*4C
1498140274.06,12383,22.81,74312.5,20.43,-22.31,-22.17,0,*47
1498140275.32,12384,22.81,74310.8,20.39,-21.87,-21.43,0,*41
1498140276.55,12385,22.81,74314.3,20.39,-22.27,-21.93,0,*44
1498140277.81,12386,22.81,74314.3,20.37,-20.99,-20.53,0,*43
1498140279.02,12387,22.81,74308.3,20.37,-22.11,-21.77,0,*47
1498140280.26,12388,22.81,74310.5,20.37,-20.35,-19.85,0,*4A
1498140281.48,12389,22.81,74308.5,20.37,-19.57,-19.07,0,*4F
1498140282.74,12390,22.81,74310.8,20.39,-19.13,-18.55,0,*4F
1498140284.0,12391,22.81,74308.0,20.43,-18.65,-17.97,0,*42
1498140285.2,12392,22.81,74310.8,20.45,-18.07,-17.49,0,*40
1498140286.4,12393,22.81,74312.0,20.45,-18.45,-17.69,0,*45
1498140287.65,12394,22.81,74310.5,20.49,-17.93,-17.21,0,*46
1498140288.85,12395,22.81,74310.8,20.49,-18.41,-17.73,0,*40
1498140290.08,12396,22.81,74308.5,20.49,-18.83,-18.01,0,*47
1498140291.29,12397,22.81,74314.0,20.53,-18.79,-18.07,0,*4E
1498140292.48,12398,22.81,74312.8,20.53,-18.49,-17.73,0,*4E
1498140293.76,12399,22.81,74312.3,20.55,-18.01,-17.25,0,*46
1498140295.01,12400,22.81,74308.3,20.57,-17.93,-17.21,0,*43
1498140296.28,12401,22.81,74314.0,20.59,-17.93,-17.17,0,*49
1498140297.54,12402,22.81,74310.5,20.61,-17.55,-16.79,0,*42
1498140298.76,12403,22.81,74314.0,20.63,-17.11,-16.37,0,*4B
1498140299.99,12404,22.81,74310.5,20.67,-17.49,-16.69,0,*4E
1498140301.25,12405,22.81,74312.8,20.71,-17.45,-16.69,0,*44
1498140302.49,12406,22.81,74308.8,20.73,-18.59,-17.73,0,*4D
1498140303.74,12407,22.81,74310.0,20.73,-18.11,-17.25,0,*43
1498140304.94,12408,22.81,74308.0,20.75,-17.73,-16.97,0,*49
1498140306.15,12409,22.81,74310.0,20.75,-18.73,-17.87,0,*47
1498140307.37,12410,22.81,74308.3,20.75,-19.85,-19.03,0,*45
1498140308.61,12411,22.81,74310.5,20.79,-20.79,-20.15,0,*4C
1498140309.87,12412,22.81,74304.3,20.75,-21.33,-20.53,0,*4E
1498140311.11,12413,22.81,74304.5,20.73,-20.09,-19.23,0,*4C
1498140312.33,12414,22.81,74310.5,20.75,-20.15,-19.47,0,*42
1498140313.57,12415,22.81,74308.5,20.73,-20.15,-19.37,0,*42
1498140314.8,12416,22.81,74306.5,20.75,-19.71,-18.93,0,*40
1498140316.06,12417,22.81,74308.8,20.75,-19.61,-18.89,0,*4B
1498140317.26,12418,22.81,74304.8,20.75,-19.99,-19.17,0,*45
1498140318.5,12419,22.81,74310.0,20.75,-19.61,-18.73,0,*40
1498140319.72,12420,22.81,74304.0,20.73,-19.37,-18.41,0,*4E
1498140320.96,12421,22.81,74304.8,20.75,-19.61,-18.65,0,*4C
1498140322.19,12422,22.81,74304.5,20.75,-19.07,-18.31,0,*4E
1498140323.39,12423,22.81,74306.5,20.79,-19.71,-18.83,0,*4B
1498140324.62,12424,22.81,74306.5,20.77,-19.03,-18.11,0,*4C
1498140325.85,12425,22.81,74302.0,20.77,-18.41,-17.49,0,*48
1498140327.08,12426,22.81,74306.5,20.79,-18.49,-17.63,0,*45
1498140328.32,12427,22.81,74302.5,20.81,-18.11,-17.11,0,*4B
1498140329.55,12428,22.81,74304.5,20.81,-18.25,-17.35,0,*45
1498140330.8,12429,22.81,74308.0,20.85,-19.41,-18.45,0,*4B
1498140332.0,12430,22.81,74304.0,20.83,-19.47,-18.45,0,*43
1498140333.2,12431,22.81,74304.0,20.83,-19.37,-18.45,0,*45
1498140334.45,12432,22.81,74306.8,20.85,-19.61,-18.83,0,*49
1498140335.67,12433,22.81,74306.0,20.85,-20.05,-19.13,0,*48
1498140336.94,12434,22.81,74304.8,20.85,-19.61,-18.59,0,*48
1498140338.18,12435,22.81,74304.0,20.85,-19.81,-18.73,0,*4F
1498140339.43,12436,22.81,74304.5,20.85,-19.65,-18.73,0,*46
1498140340.66,12437,22.81,74304.0,20.85,-19.51,-18.45,0,*45
1498140341.89,12438,22.81,74308.0,20.85,-18.83,-17.83,0,*41
1498140343.13,12439,22.81,74306.0,20.89,-19.41,-18.65,0,*44
1498140344.35,12440,22.81,74306.0,20.85,-21.93,-21.13,0,*49
1498140345.58,12441,22.81,74302.0,20.85,-21.13,-20.25,0,*44
1498140346.83,12442,22.81,74302.8,20.81,-20.79,-19.95,0,*4F
1498140348.06,12443,22.81,74302.0,20.83,-20.63,-19.65,0,*48
1498140349.31,12444,22.81,74304.8,20.81,-19.57,-18.49,0,*4F
1498140350.54,12445,22.81,74302.0,20.83,-18.93,-18.11,0,*48
1498140351.79,12446,22.81,74302.8,20.83,-19.65,-18.59,0,*4F
1498140353.02,12447,22.81,74306.3,20.83,-19.31,-18.45,0,*42
1498140354.25,12448,22.81,74304.5,20.85,-19.81,-18.83,0,*4A
1498140355.5,12449,22.81,74304.5,20.89,-19.07,-18.01,0,*43
1498140356.77,12450,22.81,74306.3,20.85,-18.55,-17.55,0,*4F
1498140358.04,12451,22.81,74304.8,20.89,-18.31,-17.45,0,*41
1498140359.26,12452,22.81,74302.3,20.89,-18.69,-17.73,0,*4A
1498140360.53,12453,22.81,74302.0,20.91,-19.27,-18.31,0,*40
1498140361.78,12454,22.81,74304.5,20.91,-18.55,-17.63,0,*4B
1498140362.99,12455,22.81,74302.3,20.93,-20.29,-19.41,0,*46
1498140364.18,12456,22.81,74304.8,20.93,-20.09,-19.17,0,*44
1498140365.41,12457,22.81,74302.3,20.91,-19.71,-18.93,0,*4F
1498140366.66,12458,22.81,74304.3,20.91,-20.53,-19.85,0,*4C
1498140367.88,12459,22.81,74304.0,20.91,-20.89,-20.15,0,*49
1498140369.1,12460,22.81,74304.5,20.89,-21.47,-20.69,0,*42
1498140370.35,12461,22.81,74302.5,20.91,-20.79,-19.85,0,*4E
1498140371.6,12462,22.81,74302.3,20.89,-20.39,-19.41,0,*48
1498140372.81,12463,22.81,74306.5,20.89,-19.91,-18.99,0,*45
1498140374.06,12464,22.81,74304.5,20.85,-20.69,-19.81,0,*4B
1498140375.27,12465,22.81,74300.0,20.85,-19.75,-18.83,0,*4E
1498140376.53,12466,22.81,74300.0,20.89,-20.35,-19.27,0,*40
1498140377.77,12467,22.81,74306.5,20.89,-20.29,-19.27,0,*4C
1498140378.99,12468,22.81,74306.0,20.85,-20.09,-19.13,0,*4A
1498140380.26,12469,22.81,74306.5,20.85,-21.83,-20.99,0,*40
1498140381.51,12470,22.81,74304.8,20.85,-20.99,-20.05,0,*47
1498140382.76,12471,22.81,74306.0,20.85,-21.97,-21.43,0,*4A
1498140383.98,12472,22.81,74304.8,20.81,-22.27,-21.39,0,*48
1498140385.21,12473,22.81,74304.8,20.81,-21.17,-20.39,0,*48
1498140386.49,12474,22.81,74304.0,20.81,-21.53,-20.79,0,*4B
1498140387.74,12475,22.81,74302.0,20.79,-20.99,-20.15,0,*40
1498140388.97,12476,22.81,74300.5,20.79,-20.35,-19.37,0,*4F
1498140390.21,12477,22.81,74300.5,20.77,-19.91,-18.89,0,*40
1498140391.44,12478,22.81,74302.8,20.79,-19.61,-18.69,0,*40
1498140392.64,12479,22.81,74300.3,20.79,-19.99,-18.99,0,*49
1498140393.87,12480,22.81,74300.8,20.79,-19.61,-18.83,0,*43
1498140395.1,12481,22.81,74302.8,20.79,-21.13,-20.35,0,*4A
1498140396.36,12482,22.81,74306.5,20.81,-21.93,-21.23,0,*40
1498140397.59,12483,22.81,74300.3,20.77,-22.37,-21.47,0,*47
1498140398.84,12484,22.81,74304.5,20.79,-20.49,-19.41,0,*48
1498140400.09,12485,22.81,74302.0,20.77,-21.17,-20.35,0,*44
1498140401.34,12486,22.81,74304.5,20.75,-20.53,-19.81,0,*41
1498140402.55,12487,22.81,74304.8,20.75,-20.43,-19.47,0,*4B
1498140403.78,12488,22.81,74302.3,20.75,-19.65,-18.73,0,*4C
1498140404.99,12489,22.81,74304.5,20.75,-20.89,-20.09,0,*43
1498140406.19,12490,22.81,74302.0,20.75,-22.27,-21.39,0,*4F
1498140407.46,12491,22.81,74304.5,20.73,-19.85,-18.89,0,*49
1498140408.71,12492,22.81,74302.8,20.77,-20.59,-19.61,0,*42
1498140409.92,12493,22.81,74306.0,20.75,-20.89,-19.99,0,*4B
1498140411.15,12494,22.81,74306.3,20.75,-19.65,-18.65,0,*46
1498140412.38,12495,22.81,74304.5,20.75,-20.39,-19.31,0,*44
1498140413.58,12496,22.81,74306.8,20.75,-20.43,-19.47,0,*4B
1498140414.8,12497,22.81,74304.0,20.77,-20.05,-18.99,0,*48
1498140416.04,12498,22.81,74300.8,20.75,-18.93,-17.87,0,*41
1498140417.26,12499,22.81,74300.0,20.75,-18.59,-17.49,0,*44
1498140418.49,12500,22.81,74304.5,20.79,-18.17,-17.25,0,*49
1498140419.71,12501,22.81,74302.8,20.81,-19.51,-18.41,0,*41
1498140420.96,12502,22.81,74300.3,20.81,-19.31,-18.25,0,*46
1498140422.21,12503,22.81,74304.8,20.83,-18.31,-17.21,0,*4F
1498140423.42,12504,22.81,74300.8,20.83,-18.41,-17.35,0,*4A
1498140424.66,12505,22.81,74304.5,20.83,-18.31,-17.35,0,*4C
1498140425.94,12506,22.81,74302.3,20.89,-19.27,-18.31,0,*48
1498140427.17,12507,22.81,74302.5,20.85,-21.39,-20.43,0,*4F
1498140428.44,12508,22.81,74302.3,20.85,-21.97,-21.03,0,*41
1498140429.69,12509,22.81,74302.8,20.85,-19.65,-18.45,0,*4E
1498140430.92,12510,22.81,74300.0,20.83,-18.89,-17.83,0,*46
1498140432.19,12511,22.81,74298.0,20.85,-18.59,-17.55,0,*47
1498140433.44,12512,22.81,74298.0,20.89,-18.49,-17.41,0,*4C
1498140434.67,12513,22.81,74300.5,20.91,-19.23,-18.07,0,*44
1498140435.93,12514,22.81,74298.5,20.91,-19.27,-18.31,0,*42
1498140437.12,12515,22.81,74298.0,20.93,-19.99,-19.03,0,*44
1498140438.33,12516,22.81,74298.5,20.91,-19.07,-18.07,0,*47
1498140439.56,12517,22.81,74298.5,20.91,-19.27,-18.41,0,*46
1498140440.77,12518,22.81,74298.5,20.91,-19.85,-18.79,0,*4A
1498140441.97,12519,22.88,74296.5,20.91,-19.99,-19.07,0,*4E
1498140443.2,12520,22.81,74294.3,20.91,-19.61,-18.65,0,*46
1498140444.43,12521,22.81,74296.8,20.91,-18.93,-17.87,0,*48
1498140445.66,12522,22.81,74294.5,20.95,-19.37,-18.41,0,*45
1498140446.89,12523,22.81,74288.5,20.93,-20.43,-19.65,0,*4C
1498140448.11,12524,22.81,74290.8,20.91,-19.61,-18.65,0,*42
1498140449.31,12525,22.81,74290.3,20.91,-20.69,-19.91,0,*4B
1498140450.56,12526,22.81,74292.0,20.91,-20.35,-19.41,0,*4C
1498140451.78,12527,22.81,74288.3,20.91,-20.15,-19.13,0,*48
1498140452.97,12528,22.81,74294.8,20.91,-19.99,-18.99,0,*4A
1498140454.19,12529,22.81,74292.8,20.89,-19.99,-18.99,0,*42
1498140455.42,12530,22.81,74292.5,20.89,-20.29,-19.23,0,*4B
1498140456.65,12531,22.88,74292.8,20.89,-19.85,-18.79,0,*48
1498140457.9,12532,22.88,74290.3,20.89,-19.57,-18.83,0,*41
1498140459.15,12533,22.81,74286.0,20.85,-21.13,-20.19,0,*4F
1498140460.4,12534,22.81,74286.8,20.85,-20.99,-19.95,0,*45
1498140461.62,12535,22.88,74290.3,20.85,-22.07,-21.13,0,*44
1498140462.86,12536,22.81,74288.0,20.81,-21.17,-20.15,0,*46
1498140464.09,12537,22.81,74290.5,20.81,-20.39,-19.47,0,*47
1498140465.34,12538,22.81,74288.0,20.81,-21.03,-20.09,0,*40
1498140466.56,12539,22.88,74294.3,20.81,-19.99,-19.03,0,*49
1498140467.76,12540,22.88,74294.5,20.79,-20.93,-20.05,0,*4C
1498140468.99,12541,22.81,74290.0,20.79,-21.39,-20.49,0,*44
1498140470.25,12542,22.81,74288.0,20.77,-21.27,-20.39,0,*41
1498140471.48,12543,22.88,74292.8,20.77,-21.47,-20.69,0,*43
1498140472.74,12544,22.81,74296.3,20.77,-22.11,-21.27,0,*4F
1498140474.01,12545,22.81,74296.8,20.73,-21.57,-20.79,0,*41
1498140475.24,12546,22.81,74296.3,20.73,-19.85,-19.07,0,*45
1498140476.51,12547,22.88,74296.3,20.73,-20.79,-20.15,0,*44
1498140477.73,12548,22.81,74296.3,20.73,-21.09,-20.29,0,*42
1498140478.96,12549,22.81,74294.8,20.71,-20.49,-19.51,0,*41
1498140480.2,12550,22.81,74296.0,20.71,-20.43,-19.57,0,*45
1498140481.45,12551,22.81,74292.3,20.73,-21.33,-20.25,0,*4F
1498140482.68,12552,22.88,74298.8,20.71,-19.51,-18.59,0,*41
1498140483.91,12553,22.81,74294.5,20.71,-19.57,-18.69,0,*45
1498140485.11,12554,22.81,74292.0,20.71,-19.75,-18.83,0,*46
1498140486.34,12555,22.81,74296.0,20.71,-20.99,-20.29,0,*44
1498140487.57,12556,22.88,74296.8,20.71,-21.87,-21.09,0,*4A
1498140488.82,12557,22.81,74296.3,20.69,-21.63,-20.99,0,*40
1498140490.1,12558,22.88,74298.8,20.69,-20.99,-20.19,0,*43
1498140491.35,12559,22.88,74298.8,20.69,-19.75,-18.89,0,*48
1498140492.6,12560,22.81,74294.0,20.69,-18.83,-17.93,0,*4E
1498140493.82,12561,22.81,74298.0,20.71,-19.85,-18.99,0,*44